Home   Weather   Göppingen   Past weeks

Flag for Germany Past Weather in Göppingen, Baden-Württemberg, Germany — Yesterday and Last 2 Weeks

Now
48 °F

Partly sunny.


Feels Like: 48 °F
Forecast: 35 / 54 °F
Wind: 2 mph from North

Location: Stuttgart-Echterdingen

Current Time: Apr 28, 2017 at 4:20:55 pm

Latest Report: Apr 28, 2017 at 3:50 pm


Visibility: N/A

Pressure: 29.92 "Hg

Humidity: 54%

Dew Point: 32 °F

Location of GöppingenLocation

Past Weather in Göppingen — Graph

°F

Göppingen Temperature Yesterday

Maximum temperature yesterday: 45 °F (at 4:20 pm)
Minimum temperature yesterday: 36 °F (at 6:50 am)
Average temperature yesterday: 40 °F

High & Low Weather Summary for the Past Weeks

 TemperatureHumidityPressure
High66 °F (Apr 24, 5:50 pm)100% (Apr 18, 9:20 pm)30.54 "Hg (Apr 18, 9:20 pm)
Low27 °F (Apr 20, 5:20 am)27% (Apr 21, 4:50 pm)29.74 "Hg (Apr 25, 2:20 am)
Average44 °F71%30.10 "Hg
* Reported Apr 13 2:20 pm — Apr 28 2:50 pm, Göppingen, Weather by CustomWeather, © 2017

Note: Actual official high and low records may vary slightly from our data, if they occured in-between our weather recording intervals... More about our weather records

Advertising

Göppingen Weather History for the Previous 24 Hours

Scroll right to see more
 ConditionsComfort  
Time TempWeatherWind HumidityBarometerVisibility
2:50 pm
Fri, Apr 28
48 °FPartly sunny.10 mph54%29.92 "HgN/A
2:20 pm50 °FScattered clouds.7 mph54%29.92 "HgN/A
1:50 pm48 °FScattered clouds.14 mph62%29.92 "HgN/A
1:20 pm48 °FScattered clouds.5 mph58%29.89 "HgN/A
12:50 pm45 °FSprinkles. Scattered clouds.10 mph66%29.89 "HgN/A
12:20 pm46 °FScattered clouds.7 mph66%29.89 "HgN/A
11:50 am48 °FScattered clouds.7 mph66%29.89 "HgN/A
11:20 am45 °FScattered clouds.6 mph76%29.89 "HgN/A
10:50 am45 °FPartly sunny.6 mph76%29.89 "HgN/A
9:50 am43 °FPartly sunny.7 mph81%29.89 "HgN/A
9:20 am43 °FPartly sunny.7 mph81%29.89 "Hg6 mi
8:50 am41 °FLow clouds.6 mph87%29.89 "Hg4 mi
8:20 am41 °FLow clouds.3 mph87%29.89 "Hg4 mi
7:50 am39 °FLight rain. More clouds than sun.5 mph93%29.89 "Hg5 mi
7:20 am39 °FLight rain. More clouds than sun.3 mph93%29.89 "Hg6 mi
6:50 am39 °FLight rain. More clouds than sun.6 mph93%29.89 "Hg5 mi
6:20 am39 °FDrizzle. Partly sunny.7 mph93%29.89 "Hg5 mi
5:50 am39 °FPartly cloudy.8 mph93%29.86 "Hg5 mi
5:20 am39 °FPassing clouds.8 mph93%29.86 "Hg5 mi
4:50 am41 °FPassing clouds.7 mph87%29.86 "Hg5 mi
4:20 am41 °FPartly cloudy.6 mph87%29.89 "Hg6 mi
3:50 am39 °FPartly cloudy.6 mph93%29.86 "Hg6 mi
3:20 am39 °FPassing clouds.6 mph93%29.86 "Hg4 mi
2:50 am39 °FPassing clouds.3 mph93%29.86 "Hg4 mi
2:20 am39 °FPassing clouds.2 mph93%29.89 "HgN/A
1:50 am39 °FPassing clouds.3 mph93%29.89 "HgN/A
1:20 am39 °FPartly cloudy.2 mph93%29.89 "HgN/A
12:50 am39 °FPartly cloudy.2 mph93%29.92 "HgN/A
12:20 am39 °FPassing clouds.5 mph100%29.92 "Hg3 mi
11:50 pm
Thu, Apr 27
41 °FPassing clouds.1 mph93%29.92 "Hg5 mi
11:20 pm41 °FLight rain. Passing clouds.3 mph93%29.92 "HgN/A
10:50 pm41 °FLight rain. Partly cloudy.7 mph93%29.92 "HgN/A
10:20 pm43 °FLight rain. Partly cloudy.1 mph81%29.92 "HgN/A
9:50 pm43 °FLight rain. Passing clouds.1 mph81%29.92 "HgN/A
8:50 pm43 °FPartly cloudy.1 mph81%29.92 "HgN/A
8:20 pm43 °FBroken clouds.1 mph81%29.92 "HgN/A
7:50 pm43 °FBroken clouds.1 mph76%29.92 "HgN/A
7:20 pm43 °FBroken clouds.2 mph81%29.92 "HgN/A
6:50 pm43 °FBroken clouds.3 mph81%29.92 "HgN/A
6:20 pm43 °FBroken clouds.3 mph76%29.92 "HgN/A
5:50 pm45 °FPartly sunny.2 mph76%29.92 "HgN/A
5:20 pm45 °FBroken clouds.5 mph71%29.95 "HgN/A
4:50 pm45 °FBroken clouds.3 mph76%29.95 "HgN/A
4:20 pm45 °FBroken clouds.3 mph71%29.95 "HgN/A
Weather by CustomWeather, © 2017

See weather overviewHow to use our weather pages